Regional Weather Roundup
Issued by NWS

Home | Current Version | Previous Version | Text Only | Print | Product List | Glossary On
Versions: 1 2 3 4 5 6 7 8 9 10 11 12 13 14 15 16 17 18 19 20 21 22 23 24 25 26 27 28 29 30 31 32 33 34 35 36 37 38 39 40 41 42 43 44 45 46 47 48 49 50
000
ASUS44 KFWD 190610
RWRTX
NORTH TEXAS HOURLY WEATHER ROUNDUP
NATIONAL WEATHER SERVICE FORT WORTH TX
100 AM CDT THU APR 19 2018

NOTE: "FAIR" INDICATES FEW OR NO CLOUDS BELOW 12,000 FEET WITH NO
SIGNIFICANT WEATHER AND/OR OBSTRUCTIONS TO VISIBILITY.

TXZ118-119-190700-
DALLAS/FORT WORTH METROPLEX

CITY           SKY/WX    TMP DP  RH WIND       PRES   REMARKS
DFW AIRPORT    FAIR      54  38  54 N12       30.19R
6HR MIN TEMP:  54; 6HR MAX TEMP:  74;

DALLAS LOVE    NOT AVBL
FTW MEACHAM    FAIR      57  37  47 NW6       30.20R
6HR MIN TEMP:  57; 6HR MAX TEMP:  75;

DAL-EXECUTIVE  FAIR      57  35  43 NW5       30.19R
6HR MIN TEMP:  55; 6HR MAX TEMP:  74;

FTW-ALLIANCE   FAIR      44  38  79 N3        30.21R
6HR MIN TEMP:  44; 6HR MAX TEMP:  73;

FTW-NAS-JRB    FAIR      54  38  54 NW5       30.21R
6HR MIN TEMP:  54; 6HR MAX TEMP:  75;

FTW-SPINKS     FAIR      49  38  66 CALM      30.22R
6HR MIN TEMP:  45; 6HR MAX TEMP:  72;

ARLINGTON      FAIR      50  41  71 CALM      30.20R
6HR MIN TEMP:  47; 6HR MAX TEMP:  74;

GRAND PRAIRIE  FAIR      62  32  31 CALM      30.21S
6HR MIN TEMP:  60; 6HR MAX TEMP:  74;

ADDISON        FAIR      61  32  34 N8        30.23R
6HR MIN TEMP:  59; 6HR MAX TEMP:  73;

MESQUITE       FAIR      54  37  52 N3        30.21R
6HR MIN TEMP:  54; 6HR MAX TEMP:  73;

LANCASTER      FAIR      52  35  52 CALM      30.21R
6HR MIN TEMP:  51; 6HR MAX TEMP:  75;

$$

TXZ091>094-102>105-117-120-121-131>134-190700-
NORTH CENTRAL TEXAS

CITY           SKY/WX    TMP DP  RH WIND       PRES   REMARKS
SHRMAN/DENISON FAIR      55  35  47 N10       30.24R
6HR MIN TEMP:  52; 6HR MAX TEMP:  69;

GAINESVILLE    FAIR      53  32  44 N5        30.26R
6HR MIN TEMP:  53; 6HR MAX TEMP:  70;

BOWIE          FAIR      52  32  46 CALM      30.24R
6HR MIN TEMP:  47; 6HR MAX TEMP:  71;

BRIDGEPORT     FAIR      43  36  75 CALM      30.24R
6HR MIN TEMP:  43; 6HR MAX TEMP:  71;

DECATUR        FAIR      55  31  40 NE5       30.23R
6HR MIN TEMP:  54; 6HR MAX TEMP:  71;

DENTON         FAIR      50  36  58 N9        30.22R
6HR MIN TEMP:  45; 6HR MAX TEMP:  73;

MCKINNEY       FAIR      55  37  50 N8        30.22R
6HR MIN TEMP:  50; 6HR MAX TEMP:  72;

BONHAM         FAIR      55  33  41 N9        30.23R
6HR MIN TEMP:  53; 6HR MAX TEMP:  70;

GREENVILLE     FAIR      54  39  58 N3        30.22R
ROCKWALL       FAIR      57  37  47 MISG      30.21R
6HR MIN TEMP:  55; 6HR MAX TEMP:  72;

TERRELL        FAIR      52  38  58 N6        30.20R
6HR MIN TEMP:  52; 6HR MAX TEMP:  75;

WAXAHACHIE     FAIR      56  35  44 N6        30.21R
6HR MIN TEMP:  56; 6HR MAX TEMP:  73;

CLEBURNE       FAIR      55  34  44 N7        30.22S
GRANBURY       FAIR      47  38  70 CALM      30.23R
6HR MIN TEMP:  47; 6HR MAX TEMP:  73;

$$

TXZ083>090-098>101-113>116-127>130-139>142-154-155-190700-
WESTERN NORTH TEXAS

CITY           SKY/WX    TMP DP  RH WIND       PRES   REMARKS
WICHITA FALLS  FAIR      51  31  46 NE8       30.25R
6HR MIN TEMP:  50; 6HR MAX TEMP:  72;

WF-KICKAPOO    FAIR      53  31  43 NE7       30.28R
6HR MIN TEMP:  53; 6HR MAX TEMP:  73;

VERNON         FAIR      54  24  31 NE8       30.27R
6HR MIN TEMP:  52; 6HR MAX TEMP:  72;

ABILENE        FAIR      48  29  47 S6        30.24R
6HR MIN TEMP:  47; 6HR MAX TEMP:  71;

ABILENE-DYESS  CLEAR     43  18  36 CALM      30.24R
6HR MIN TEMP:  43; 6HR MAX TEMP:  72;

GRAHAM           N/A     43  35  71 CALM      30.22R
6HR MIN TEMP:  43; 6HR MAX TEMP:  72;

BRECKENRIDGE   FAIR      49  34  57 CALM      30.23R
6HR MIN TEMP:  47; 6HR MAX TEMP:  74;

CISCO          FAIR      57  25  28 CALM      30.23S
EASTLAND       FAIR      39  31  73 CALM      30.23R
6HR MIN TEMP:  38; 6HR MAX TEMP:  71;

MINERAL WELLS  FAIR      49  36  61 CALM      30.21R
6HR MIN TEMP:  49; 6HR MAX TEMP:  72;

STEPHENVILLE   FAIR      50  37  59 NW5       30.24R
6HR MIN TEMP:  50; 6HR MAX TEMP:  73;

COMANCHE       FAIR      57  31  37 NW3       30.22S
6HR MIN TEMP:  57; 6HR MAX TEMP:  72;

BROWNWOOD      FAIR      46  32  57 CALM      30.23S
COLEMAN        FAIR      49  31  50 NW3       30.24R
6HR MIN TEMP:  49; 6HR MAX TEMP:  73;

BRADY          FAIR      57  27  30 NE10      30.23R
$$

TXZ143>147-156>162-174-175-190700-
CENTRAL TEXAS

CITY           SKY/WX    TMP DP  RH WIND       PRES   REMARKS
WACO           FAIR      56  40  55 NW7       30.19R
6HR MIN TEMP:  56; 6HR MAX TEMP:  75;

WACO-MCGREGOR  FAIR      55  42  61 NW5       30.19S
6HR MIN TEMP:  54; 6HR MAX TEMP:  74;

HILLSBORO      FAIR      50  41  72 N3        30.19S
6HR MIN TEMP:  49; 6HR MAX TEMP:  74;

CORSICANA      FAIR      55  41  59 N5        30.19S
6HR MIN TEMP:  54; 6HR MAX TEMP:  75;

MEXIA          FAIR      60  36  40 N9        30.17S
6HR MIN TEMP:  60; 6HR MAX TEMP:  73;

HEARNE         FAIR      59  41  51 N7        30.16S
6HR MIN TEMP:  57; 6HR MAX TEMP:  75;

CAMERON        FAIR      56  42  60 N3        30.16S
6HR MIN TEMP:  55; 6HR MAX TEMP:  75;

TEMPLE         FAIR      54  40  59 N5        30.19R
6HR MIN TEMP:  54; 6HR MAX TEMP:  75;

KILLEEN        CLEAR     59  34  38 W7        30.20R
FORT HOOD      FAIR      55  37  51 N9        30.15S
6HR MIN TEMP:  55; 6HR MAX TEMP:  75;

GATESVILLE     FAIR      54  41  62 CALM      30.22R
HAMILTON       FAIR      53  35  50 N3        30.22S
6HR MIN TEMP:  53; 6HR MAX TEMP:  73;

LAMPASAS       FAIR      55  35  46 N3        30.19S
6HR MIN TEMP:  55; 6HR MAX TEMP:  73;

$$

TXZ095>097-106>112-122>126-135>138-148>153-164>167-190700-
EAST TEXAS

CITY           SKY/WX    TMP DP  RH WIND       PRES   REMARKS
PARIS          FAIR      55  36  48 N8        30.22R
6HR MIN TEMP:  52; 6HR MAX TEMP:  70;

SULPHUR SPRNGS FAIR      58  37  45 N12       30.22R
6HR MIN TEMP:  54; 6HR MAX TEMP:  73;

MOUNT PLEASANT FAIR      61  35  37 N12       30.20R
6HR MIN TEMP:  56; 6HR MAX TEMP:  74;

GILMER         FAIR      57  38  48 NW3       30.17R
6HR MIN TEMP:  57; 6HR MAX TEMP:  74;

MINEOLA        FAIR      50  45  81 CALM      30.19R
TYLER          FAIR      56  42  59 N3        30.17R
6HR MIN TEMP:  55; 6HR MAX TEMP:  77;

LONGVIEW       FAIR      57  42  57 NW5       30.16R
6HR MIN TEMP:  57; 6HR MAX TEMP:  76;

MARSHALL       FAIR      55  37  50 N5        30.17R
6HR MIN TEMP:  55; 6HR MAX TEMP:  75;

ATHENS         FAIR      55  37  50 CALM      30.17R
PALESTINE      FAIR      56  40  54 N7        30.18S
HENDERSON      FAIR      62  35  35 N7        30.17R
6HR MIN TEMP:  62; 6HR MAX TEMP:  75;

CENTER         FAIR      57  41  54 N7        30.15R
6HR MIN TEMP:  57; 6HR MAX TEMP:  74;

NACOGDOCHES      N/A     59  42  53 N6        30.14R
6HR MIN TEMP:  59; 6HR MAX TEMP:  76;

LUFKIN         FAIR      63  44  50 N7        30.13R
6HR MIN TEMP:  60; 6HR MAX TEMP:  78;

$$

SUPPLEMENTAL OBSERVATIONS (NWS FORT WORTH AREA)

CITY           SKY/WX    TMP DP  RH WIND       PRES   REMARKS
CADDO GRASSLND   N/A     48  37  66 NE1         N/A
LBJ GRASSLAND    N/A     55  28  35 N7          N/A


USA.gov is the U.S. government's official web portal to all federal, state and local government web resources and services.